Location: Warszawa
(52.2500°N, 21.0000°E)
Time: 14:16:46
(UTC+02:00)

Vanguard 2 - Pass Details

Date: 13 February 2023
Orbit: 553 x 2927 km, 32.9° (Epoch: 27 March)

Event Time Altitude Azimuth Distance (km) Brightness Sun altitude
Rises 20:25:41 0° 240° (WSW) 4,471 11.9 -33.7°
Reaches altitude 10° 20:28:45 10° 229° (SW) 3,809 11.3 -34.1°
Enters shadow 20:36:10 30° 183° (S) 3,195 10.4 -35.2°
Maximum altitude 20:37:26 30° 174° (S) 3,264 - -35.3°
Drops below altitude 10° 20:49:38 10° 122° (ESE) 5,411 - -37.0°
Sets 20:55:04 0° 113° (ESE) 6,641 - -37.7°
